Language selection

Features

My Weather Profile Weather Topics  | 

Douglas Channel: Past 24 Hour Conditions

 

Sandspit Airport

03:00 PM PDT 22 September 2020
Disclaimer

This table is a summary of hourly weather conditions for the past 24 hours.
Please note that these observations might not always be representative of weather conditions over their associated marine area.

Date / Time
(PDT)
Wind(knots) Conditions Visibility(km) Pressure(kPa) Air tempC) Relative humidity(%) Dew pointC)
22 September 2020
15:00 SE 33 gust 43 Mist 10 100.2 14 92 13
14:00 SE 31 gust 40 Light Rain 5 100.3 14 94 13
13:00 SE 29 gust 37 Light Rain 11 100.4 14 92 12
12:00 SE 33 gust 42 Light Rain 6 100.4 13 93 12
11:00 SSE 23 gust 33 Light Rain 16 100.5 14 90 12
10:00 SE 29 gust 37 Light Rain 15 100.5 14 90 12
9:00 SE 27 gust 34 Light Rain 16 100.6 14 86 12
8:00 SE 23 gust 28 Cloudy 16 100.7 14 86 12
7:00 SSE 23 gust 28 Cloudy 16 100.7 14 82 11
6:00 SSE 19 gust 28 Cloudy 16 100.8 13 82 10
5:00 SSE 18 gust 23 Mostly Cloudy 16 100.8 13 82 10
4:00 SSE 13 gust 20 Partly Cloudy 16 100.9 13 83 10
3:00 SSE 11 Mostly Cloudy 16 101.0 12 87 10
2:00 S 3 Partly Cloudy 16 101.0 11 84 8
1:00 SSE 9 Cloudy 16 101.0 11 87 9
0:00 SE 8 Mostly Cloudy 16 101.1 11 87 9
21 September 2020
23:00 S 8 Mainly Clear 16 101.1 11 87 9
22:00 SSE 7 Clear 16 101.1 10 93 9
21:00 S 7 Partly Cloudy 16 101.2 11 88 10
20:00 S 6 Mostly Cloudy 16 101.2 13 89 11
19:00 SSE 8 Mostly Cloudy 16 101.2 13 84 11
18:00 SE 8 Cloudy 16 101.3 14 81 11
17:00 SSE 7 Cloudy 16 101.3 14 78 10
16:00 SSE 5 Cloudy 16 101.3 14 82 11
15:00 E 6 Cloudy 16 101.3 13 84 10

Zoom-in to make a selection

Map of Pacific - North Coast marine weather areas Middle Nomad - 46004 South Nomad - 46036 Dixon Entrance Central - 46145 South Moresby - 46147 Nanakwa Shoal - 46181 North Hecate Strait - 46183 North Nomad - 46184 South Hecate Strait - 46185 West Sea Otter - 46204 West Dixon Entrance - 46205 East Dellwood - 46207 West Moresby - 46208 Sartine Island Cape St.James Kindakun Rocks Langara Island Masset Municipal Airport Rose Spit Sandspit Airport Bella Bella Airport Bella Coola Airport Bonilla Island Cathedral Point Cumshewa Island Grey Islet Holland Rock Lucy Islands Lightstation Prince Rupert Airport
Legend:
buoy Buoy
land station Land Station

Pacific - North Coast Area

Another Region

What we are doing

Date modified: